FENGYUN 1C DEB, 41003

Orbit data source: Space-Track

FENGYUN 1C DEB, 41003 is space debris in SSO originally from a launch on Mon, 10 May 1999 UTC launched from the Taiyaun Space Center, China (TSC). Fengyun 1C debris stems from the Chinese weather satellite Fengyun-1C, which was intentionally destroyed by a Chinese anti-satellite missile in 2007. This event dramatically increased the amount of space debris, with thousands of trackable fragments posing hazards to satellites and human spaceflight. The Fengyun 1C debris cloud has become a focal point in discussions about space sustainability and the need for international regulations to prevent the creation of new debris.

Loading next visibility...
Identifier
41003, 1999-025EXH
Orbit
SSO
Country
Flag of CNCN / PRC
Related business
Manufacturer
Unknown
Mission
Spacecraft
Bus & Motor
Unknown
Mass
Unknown
Launch date (UTC)
1999-05-10 (27 years ago)
Launch vehicle
Unknown
Launch site
Taiyaun Space Center, China (TSC)
Object type
Payload
Rocket body
Debris
Shape & HBR
Unknown shape, 0.1 m
Radar Cross Section
Small (<0.1 m²)

Expand to show TLE details & history
Last TLE update: 3 days ago

TLE from 3 days ago
0 FENGYUN 1C DEB
1 41003U 99025EXH 26207.11284798  .00031648  00000-0  35123-2 0  9998
2 41003  98.9636 157.1944 0052350 304.0841  55.5409 14.86156722557532
Epoch: 2026-07-26T02:42Z
TLE epoch observation values (Epoch: 2026-07-26T02:42:30.065Z)
Latitude
0.00002°
Longitude
172.75368°
Altitude
592.381 km
Speed
7.575 km/s
True Right ascension
10h 28m 46s
True Declination
0° 00' 00"
Sunlit
Object was in daylight at epoch
Visualization orbit readout
Latitude
Unknown
Longitude
Unknown
Altitude
Unknown
Speed
Unknown
Apparent Right ascension
Unknown
Apparent Declination
Unknown
Sunlit
N/A
Visualization observer readout
Local Sidereal Time
04:45:34
Azimuth
Unknown
Elevation
Unknown
Doppler factor
Unknown
Orbital elements
Apogee altitude
643.608 km
Perigee altitude
570.473 km
Semi-major axis
6,985.178 km
Eccentricity
0.00524
Inclination
98.9636°
RAAN
157.1944°
Arg. of periapsis
304.0841°
True anomaly
56.03736°
Mean anomaly
55.5409°
Eccentric anomaly
55.78894°
Mean motion
3.71772 °/min
Orbital period
96.83 mins
BSTAR
0.0035123
Loading maneuver chart data...
Computing Atmospheric mass density...

Documentation

Showing up to 5 results
|